Skip Navigation
Skip Navigation

Today's Weather Data

Time Wind Dir Wind Spd
mph
Wind Gust
mph
Hum In
%
Humidity
%
Temp In
F
Temp
F
Raw Barom
in
Tot Rain
in
UV Solar
W/sqm
DailyRain
in
HourRain
in
24HrRain
in
RainRate
in/hr
8/21/2014 12:00:59a 174 1 3 46 86 80.2 65.7 29.95 0.88 0.0 0 0.24 0.00 0.24 0.000
8/21/2014 12:01:59a 174 2 3 46 86 80.2 65.7 29.95 0.88 0.0 0 0.24 0.00 0.24 0.000
8/21/2014 12:03:05a 174 1 3 46 86 80.2 65.5 29.95 0.88 0.0 0 0.24 0.00 0.24 0.000
8/21/2014 12:04:08a 174 0 2 46 86 80.2 65.4 29.95 0.88 0.0 0 0.00 0.00 0.24 0.000
8/21/2014 12:05:08a 174 0 2 46 86 80.2 65.3 29.95 0.88 0.0 0 0.00 0.00 0.24 0.000
8/21/2014 12:06:11a 174 0 2 46 86 80.2 65.3 29.95 0.88 0.0 0 0.00 0.00 0.24 0.000
8/21/2014 12:07:11a 174 0 2 46 86 80.2 65.3 29.95 0.88 0.0 0 0.00 0.00 0.24 0.000
8/21/2014 12:08:14a 174 0 2 46 86 80.2 65.3 29.95 0.88 0.0 0 0.00 0.00 0.24 0.000
8/21/2014 12:09:15a 174 0 2 46 86 80.2 65.4 29.95 0.88 0.0 0 0.00 0.00 0.24 0.000
8/21/2014 12:10:15a 174 0 2 46 86 80.2 65.4 29.95 0.88 0.0 0 0.00 0.00 0.24 0.000
8/21/2014 12:11:19a 174 0 2 46 86 80.2 65.5 29.95 0.88 0.0 0 0.00 0.00 0.24 0.000
8/21/2014 12:12:19a 174 1 2 46 86 80.2 65.7 29.95 0.88 0.0 0 0.00 0.00 0.24 0.000
8/21/2014 12:13:19a 174 1 2 46 87 80.2 65.8 29.95 0.88 0.0 0 0.00 0.00 0.24 0.000
8/21/2014 12:14:19a 174 0 2 46 87 80.2 65.9 29.95 0.88 0.0 0 0.00 0.00 0.24 0.000
8/21/2014 12:15:19a 174 0 2 46 87 80.2 66.0 29.95 0.88 0.0 0 0.00 0.00 0.24 0.000
8/21/2014 12:16:22a 174 0 2 46 87 80.2 66.0 29.95 0.88 0.0 0 0.00 0.00 0.24 0.000
8/21/2014 12:17:22a 174 0 2 46 87 80.2 66.1 29.95 0.88 0.0 0 0.00 0.00 0.24 0.000
8/21/2014 12:18:22a 174 0 0 46 86 80.2 66.1 29.95 0.88 0.0 0 0.00 0.00 0.24 0.000
8/21/2014 12:19:22a 174 0 0 46 86 80.2 66.2 29.95 0.88 0.0 0 0.00 0.00 0.24 0.000
8/21/2014 12:20:22a 174 0 0 46 87 80.2 66.2 29.95 0.88 0.0 0 0.00 0.00 0.24 0.000
8/21/2014 12:21:22a 174 0 0 46 87 80.2 66.2 29.95 0.88 0.0 0 0.00 0.00 0.24 0.000
8/21/2014 12:22:22a 174 0 0 46 86 80.2 66.3 29.95 0.88 0.0 0 0.00 0.00 0.24 0.000
8/21/2014 12:23:22a 174 0 0 46 86 80.1 66.3 29.95 0.88 0.0 0 0.00 0.00 0.24 0.000
8/21/2014 12:24:22a 174 0 0 46 86 80.1 66.2 29.95 0.88 0.0 0 0.00 0.00 0.24 0.000
8/21/2014 12:25:23a 174 0 0 46 86 80.1 66.3 29.95 0.88 0.0 0 0.00 0.00 0.24 0.000
8/21/2014 12:26:23a 174 0 0 46 86 80.1 66.2 29.95 0.88 0.0 0 0.00 0.00 0.24 0.000
8/21/2014 12:27:23a 174 0 0 46 86 80.1 66.3 29.95 0.88 0.0 0 0.00 0.00 0.24 0.000
8/21/2014 12:28:23a 174 0 0 46 86 80.1 66.3 29.95 0.88 0.0 0 0.00 0.00 0.24 0.000
8/21/2014 12:29:23a 174 0 0 46 86 80.1 66.3 29.95 0.88 0.0 0 0.00 0.00 0.24 0.000
8/21/2014 12:30:23a 174 0 0 46 86 80.1 66.3 29.95 0.88 0.0 0 0.00 0.00 0.24 0.000
8/21/2014 12:31:23a 174 0 0 46 86 80.1 66.2 29.95 0.88 0.0 0 0.00 0.00 0.24 0.000
8/21/2014 12:32:29a 174 0 0 46 86 80.1 66.3 29.95 0.88 0.0 0 0.00 0.00 0.24 0.000
8/21/2014 12:33:29a 174 0 0 46 86 80.1 66.3 29.95 0.88 0.0 0 0.00 0.00 0.24 0.000
8/21/2014 12:34:29a 174 0 0 46 86 80.1 66.3 29.95 0.88 0.0 0 0.00 0.00 0.24 0.000
8/21/2014 12:35:29a 174 0 0 46 86 80.1 66.3 29.95 0.88 0.0 0 0.00 0.00 0.24 0.000
8/21/2014 12:36:29a 174 0 0 46 86 80.1 66.2 29.95 0.88 0.0 0 0.00 0.00 0.24 0.000
8/21/2014 12:37:29a 174 0 0 46 86 80.1 66.2 29.95 0.88 0.0 0 0.00 0.00 0.24 0.000
8/21/2014 12:38:29a 174 0 0 46 86 80.1 66.2 29.95 0.88 0.0 0 0.00 0.00 0.24 0.000
8/21/2014 12:39:29a 174 0 0 46 86 80.1 66.2 29.95 0.88 0.0 0 0.00 0.00 0.24 0.000
8/21/2014 12:40:30a 174 0 0 46 86 80.1 66.1 29.95 0.88 0.0 0 0.00 0.00 0.24 0.000
8/21/2014 12:41:30a 174 0 0 46 86 80.1 66.1 29.95 0.88 0.0 0 0.00 0.00 0.24 0.000
8/21/2014 12:42:33a 174 0 0 46 86 80.1 66.1 29.95 0.88 0.0 0 0.00 0.00 0.24 0.000
8/21/2014 12:43:33a 174 0 0 46 86 80.1 66.1 29.95 0.88 0.0 0 0.00 0.00 0.24 0.000
8/21/2014 12:44:33a 174 0 0 46 86 80.1 66.1 29.95 0.88 0.0 0 0.00 0.00 0.24 0.000
8/21/2014 12:45:33a 174 0 1 46 86 80.1 66.0 29.95 0.88 0.0 0 0.00 0.00 0.24 0.000
8/21/2014 12:46:33a 174 0 1 46 86 80.1 66.0 29.95 0.88 0.0 0 0.00 0.00 0.24 0.000
8/21/2014 12:47:33a 174 0 1 46 86 80.1 66.0 29.95 0.88 0.0 0 0.00 0.00 0.24 0.000
8/21/2014 12:48:33a 174 0 0 46 85 79.9 65.9 29.95 0.88 0.0 0 0.00 0.00 0.24 0.000
8/21/2014 12:49:33a 174 1 1 46 85 79.9 65.9 29.95 0.88 0.0 0 0.00 0.00 0.24 0.000
8/21/2014 12:50:33a 174 0 1 46 85 79.9 65.9 29.95 0.88 0.0 0 0.00 0.00 0.24 0.000
8/21/2014 12:51:39a 174 0 1 46 85 79.9 65.8 29.95 0.88 0.0 0 0.00 0.00 0.24 0.000
8/21/2014 12:52:39a 174 0 1 46 85 79.9 65.9 29.95 0.88 0.0 0 0.00 0.00 0.24 0.000
8/21/2014 12:53:40a 174 0 1 46 85 79.9 65.9 29.95 0.88 0.0 0 0.00 0.00 0.24 0.000
8/21/2014 12:54:40a 174 0 1 46 86 79.9 65.9 29.95 0.88 0.0 0 0.00 0.00 0.24 0.000
8/21/2014 12:55:40a 174 0 1 46 86 79.9 65.9 29.95 0.88 0.0 0 0.00 0.00 0.24 0.000
8/21/2014 12:56:40a 174 0 1 46 86 79.9 65.9 29.95 0.88 0.0 0 0.00 0.00 0.24 0.000
8/21/2014 12:57:43a 174 0 1 46 85 79.9 65.8 29.95 0.88 0.0 0 0.00 0.00 0.24 0.000
8/21/2014 12:58:43a 174 0 1 46 85 79.9 65.7 29.95 0.88 0.0 0 0.00 0.00 0.24 0.000
8/21/2014 12:59:43a 174 0 1 46 85 79.9 65.7 29.95 0.88 0.0 0 0.00 0.00 0.24 0.000
8/21/2014 1:00:43a 174 0 1 46 85 79.9 65.7 29.95 0.88 0.0 0 0.00 0.00 0.24 0.000
8/21/2014 1:01:46a 174 0 1 46 85 79.9 65.7 29.95 0.88 0.0 0 0.00 0.00 0.24 0.000
8/21/2014 1:02:46a 174 0 1 46 86 79.9 65.7 29.95 0.88 0.0 0 0.00 0.00 0.24 0.000
8/21/2014 1:03:46a 174 0 0 46 86 79.9 65.7 29.95 0.88 0.0 0 0.00 0.00 0.24 0.000
8/21/2014 1:04:46a 174 0 0 46 86 79.9 65.7 29.95 0.88 0.0 0 0.00 0.00 0.24 0.000
8/21/2014 1:05:46a 174 0 0 46 86 79.9 65.7 29.95 0.88 0.0 0 0.00 0.00 0.24 0.000
8/21/2014 1:06:46a 174 0 0 46 86 79.9 65.7 29.95 0.88 0.0 0 0.00 0.00 0.24 0.000
8/21/2014 1:07:47a 174 0 0 46 86 79.9 65.7 29.95 0.88 0.0 0 0.00 0.00 0.24 0.000
8/21/2014 1:08:47a 174 0 0 46 86 79.9 65.6 29.95 0.88 0.0 0 0.00 0.00 0.24 0.000
8/21/2014 1:09:47a 174 0 0 46 86 79.9 65.5 29.95 0.88 0.0 0 0.00 0.00 0.24 0.000
8/21/2014 1:10:47a 174 0 0 46 86 79.9 65.4 29.95 0.88 0.0 0 0.00 0.00 0.24 0.000
8/21/2014 1:11:47a 174 0 0 46 86 79.9 65.3 29.95 0.88 0.0 0 0.00 0.00 0.24 0.000

© All rights reserved. Unauthorized duplication or distribution is prohibited

Never base important decisions on this or any weather information obtained from the Internet

California State University, San Bernardino
5500 University Parkway, San Bernardino, CA. 92407
Phone: (909) 537-7558, Email: Weather Master
Last Updated: